TimePDT,TemperatureF,Dew PointF,Humidity,Sea Level PressureIn,VisibilityMPH,Wind Direction,Wind SpeedMPH,Gust SpeedMPH,PrecipitationIn,Events,Conditions,WindDirDegrees,DateUTC
12:58 AM,42.8,42.6,99,30.25,10.0,South,3.5,-,N/A,,Clear,190,2013-10-13 07:58:00
1:18 AM,41.0,41.0,100,30.23,1.2,South,2.3,-,N/A,,Clear,170,2013-10-13 08:18:00
1:23 AM,42.8,42.8,100,30.23,0.8,SSE,2.3,-,N/A,,Clear,160,2013-10-13 08:23:00
1:43 AM,42.8,42.8,100,30.23,0.5,South,3.5,-,N/A,Fog,Fog,190,2013-10-13 08:43:00
1:48 AM,41.0,41.0,100,30.24,0.5,SSW,2.3,-,N/A,Fog,Fog,200,2013-10-13 08:48:00
1:53 AM,41.0,41.0,100,30.24,1.0,SSW,1.2,-,N/A,,Clear,210,2013-10-13 08:53:00
1:58 AM,39.2,39.2,100,30.26,4.0,Calm,Calm,-,N/A,,Clear,0,2013-10-13 08:58:00
2:13 AM,41.0,41.0,100,30.24,1.2,Calm,Calm,-,N/A,,Clear,0,2013-10-13 09:13:00
2:18 AM,41.0,41.0,100,30.24,1.0,Calm,Calm,-,N/A,,Clear,0,2013-10-13 09:18:00
2:28 AM,41.0,41.0,100,30.24,0.5,Calm,Calm,-,N/A,,Clear,0,2013-10-13 09:28:00
2:33 AM,41.0,41.0,100,30.24,0.5,Calm,Calm,-,N/A,Fog,Fog,0,2013-10-13 09:33:00
2:38 AM,41.0,41.0,100,30.25,0.2,Calm,Calm,-,N/A,Fog,Fog,0,2013-10-13 09:38:00
2:43 AM,41.0,41.0,100,30.25,0.5,Calm,Calm,-,N/A,Fog,Fog,0,2013-10-13 09:43:00
2:48 AM,41.0,41.0,100,30.25,1.2,Calm,Calm,-,N/A,,Clear,0,2013-10-13 09:48:00
2:53 AM,39.2,39.2,100,30.25,0.8,Calm,Calm,-,N/A,,Clear,0,2013-10-13 09:53:00
2:58 AM,39.2,39.2,100,30.27,0.5,Calm,Calm,-,N/A,Fog,Fog,0,2013-10-13 09:58:00
3:03 AM,39.2,39.2,100,30.25,0.8,Calm,Calm,-,N/A,,Clear,0,2013-10-13 10:03:00
3:08 AM,39.2,39.2,100,30.25,0.5,Calm,Calm,-,N/A,Fog,Fog,0,2013-10-13 10:08:00
3:18 AM,39.2,39.2,100,30.25,1.2,Calm,Calm,-,N/A,,Clear,0,2013-10-13 10:18:00
3:28 AM,39.2,39.2,100,30.25,0.8,SSE,1.2,-,N/A,,Clear,160,2013-10-13 10:28:00
3:33 AM,39.2,39.2,100,30.25,0.5,SSE,1.2,-,N/A,Fog,Fog,150,2013-10-13 10:33:00
3:38 AM,39.2,39.2,100,30.25,0.5,Calm,Calm,-,N/A,Fog,Fog,0,2013-10-13 10:38:00
3:43 AM,37.4,37.4,100,30.25,0.5,ESE,2.3,-,N/A,Fog,Fog,120,2013-10-13 10:43:00
3:58 AM,39.2,37.4,93,30.27,0.5,East,2.3,-,N/A,Fog,Fog,100,2013-10-13 10:58:00
4:03 AM,39.2,37.4,93,30.25,1.0,ESE,2.3,-,N/A,,Clear,110,2013-10-13 11:03:00
4:08 AM,39.2,37.4,93,30.25,1.0,SE,2.3,-,N/A,,Clear,140,2013-10-13 11:08:00
4:13 AM,37.4,37.4,100,30.25,0.5,SE,2.3,-,N/A,Fog,Fog,140,2013-10-13 11:13:00
4:18 AM,37.4,35.6,93,30.25,0.5,SSE,2.3,-,N/A,Fog,Fog,150,2013-10-13 11:18:00
4:28 AM,37.4,37.4,100,30.25,0.5,SSE,1.2,-,N/A,Fog,Fog,150,2013-10-13 11:28:00
4:33 AM,37.4,37.4,100,30.25,0.5,SSE,1.2,-,N/A,Fog,Fog,150,2013-10-13 11:33:00
4:53 AM,39.2,39.2,100,30.26,0.8,Calm,Calm,-,N/A,,Clear,0,2013-10-13 11:53:00
4:58 AM,39.2,39.2,100,30.28,2.0,Calm,Calm,-,N/A,,Clear,0,2013-10-13 11:58:00
5:00 AM,39.2,39.2,100,30.26,2.5,Calm,Calm,-,N/A,,Partly Cloudy,0,2013-10-13 12:00:00
5:05 AM,39.2,39.2,100,30.26,4.0,Calm,Calm,-,N/A,,Scattered Clouds,0,2013-10-13 12:05:00
5:10 AM,39.2,37.4,93,30.26,0.8,Calm,Calm,-,N/A,,Mist,0,2013-10-13 12:10:00
5:14 AM,37.4,37.4,100,30.26,0.2,Calm,Calm,-,N/A,Fog,Fog,0,2013-10-13 12:14:00
5:19 AM,37.4,37.4,100,30.27,0.2,Calm,Calm,-,N/A,Fog,Fog,0,2013-10-13 12:19:00
5:23 AM,37.4,37.4,100,30.27,0.2,Calm,Calm,-,N/A,Fog,Fog,0,2013-10-13 12:23:00
5:28 AM,39.2,39.2,100,30.27,0.2,Calm,Calm,-,N/A,Fog,Fog,0,2013-10-13 12:28:00
5:33 AM,39.2,39.2,100,30.27,0.2,Calm,Calm,-,N/A,Fog,Fog,0,2013-10-13 12:33:00
5:58 AM,39.4,39.2,99,30.29,0.2,SE,1.2,-,0.00,Fog,Fog,130,2013-10-13 12:58:00
6:08 AM,39.2,39.2,100,30.27,0.2,SSE,1.2,-,N/A,Fog,Fog,150,2013-10-13 13:08:00
6:11 AM,39.2,39.2,100,30.27,0.2,SSE,2.3,-,N/A,Fog,Fog,160,2013-10-13 13:11:00
6:16 AM,39.2,39.2,100,30.27,0.2,SSE,1.2,-,N/A,Fog,Fog,160,2013-10-13 13:16:00
6:28 AM,39.2,39.2,100,30.27,0.2,SSE,1.2,-,N/A,Fog,Fog,160,2013-10-13 13:28:00
6:33 AM,39.2,39.2,100,30.27,0.2,SE,2.3,-,N/A,Fog,Fog,140,2013-10-13 13:33:00
6:48 AM,41.0,39.2,93,30.28,0.2,Calm,Calm,-,N/A,Fog,Fog,0,2013-10-13 13:48:00
6:58 AM,40.3,40.1,99,30.30,0.2,ESE,2.3,-,0.00,Fog,Fog,110,2013-10-13 13:58:00
7:05 AM,41.0,41.0,100,30.28,0.2,ESE,2.3,-,N/A,Fog,Fog,120,2013-10-13 14:05:00
7:15 AM,41.0,41.0,100,30.28,0.2,Calm,Calm,-,N/A,Fog,Fog,0,2013-10-13 14:15:00
7:30 AM,41.0,41.0,100,30.29,0.2,East,2.3,-,N/A,Fog,Fog,90,2013-10-13 14:30:00
7:50 AM,41.0,41.0,100,30.29,0.2,ESE,1.2,-,N/A,Fog,Fog,110,2013-10-13 14:50:00
7:58 AM,40.8,40.6,99,30.32,0.2,ESE,2.3,-,0.00,Fog,Fog,120,2013-10-13 14:58:00
8:08 AM,41.0,41.0,100,30.30,0.2,ESE,1.2,-,N/A,Fog,Fog,110,2013-10-13 15:08:00
8:13 AM,41.0,41.0,100,30.30,0.2,East,1.2,-,N/A,Fog,Fog,100,2013-10-13 15:13:00
8:18 AM,41.0,41.0,100,30.30,0.2,SSE,2.3,-,N/A,Fog,Fog,150,2013-10-13 15:18:00
8:23 AM,41.0,41.0,100,30.30,0.8,SSE,1.2,-,N/A,Fog,Fog,160,2013-10-13 15:23:00
8:28 AM,41.0,41.0,100,30.30,0.5,SW,1.2,-,N/A,Fog,Fog,220,2013-10-13 15:28:00
8:33 AM,41.0,41.0,100,30.31,0.5,Calm,Calm,-,N/A,Fog,Fog,0,2013-10-13 15:33:00
8:38 AM,42.8,41.0,93,30.31,1.2,Calm,Calm,-,N/A,,Overcast,0,2013-10-13 15:38:00
8:43 AM,42.8,42.8,100,30.31,4.0,Calm,Calm,-,N/A,,Overcast,0,2013-10-13 15:43:00
8:48 AM,42.8,42.8,100,30.31,7.0,Calm,Calm,-,N/A,,Overcast,0,2013-10-13 15:48:00
8:58 AM,43.0,42.6,99,30.33,5.0,SE,2.3,-,N/A,,Mostly Cloudy,140,2013-10-13 15:58:00
9:08 AM,42.8,42.8,100,30.31,7.0,SE,1.2,-,N/A,,Mostly Cloudy,130,2013-10-13 16:08:00
9:42 AM,46.4,46.4,100,30.32,10.0,Calm,Calm,-,N/A,,Mostly Cloudy,0,2013-10-13 16:42:00
9:57 AM,46.4,46.4,100,30.32,10.0,SE,2.3,-,N/A,,Mostly Cloudy,140,2013-10-13 16:57:00
9:58 AM,46.4,46.4,100,30.34,10.0,SE,3.5,-,N/A,,Mostly Cloudy,130,2013-10-13 16:58:00
10:03 AM,46.4,46.4,100,30.32,10.0,ESE,3.5,-,N/A,,Overcast,120,2013-10-13 17:03:00
10:23 AM,48.2,48.2,100,30.32,10.0,ENE,3.5,-,N/A,,Overcast,70,2013-10-13 17:23:00
10:38 AM,48.2,48.2,100,30.32,10.0,NE,5.8,-,N/A,,Overcast,40,2013-10-13 17:38:00
10:58 AM,48.2,48.2,100,30.35,10.0,NE,2.3,-,N/A,,Overcast,50,2013-10-13 17:58:00
11:03 AM,48.2,48.2,100,30.33,10.0,NE,3.5,-,N/A,,Overcast,50,2013-10-13 18:03:00
11:58 AM,50.4,50.4,100,30.34,10.0,North,5.8,-,N/A,,Overcast,350,2013-10-13 18:58:00
12:58 PM,53.1,46.6,79,30.33,10.0,NNE,3.5,-,N/A,,Mostly Cloudy,20,2013-10-13 19:58:00
1:13 PM,53.6,46.4,77,30.31,10.0,NNE,4.6,-,N/A,,Scattered Clouds,20,2013-10-13 20:13:00
1:18 PM,53.6,46.4,77,30.31,10.0,Variable,1.2,-,N/A,,Mostly Cloudy,0,2013-10-13 20:18:00
1:38 PM,53.6,46.4,77,30.31,10.0,North,6.9,-,N/A,,Mostly Cloudy,10,2013-10-13 20:38:00
1:48 PM,55.4,46.4,72,30.31,10.0,NE,5.8,-,N/A,,Scattered Clouds,40,2013-10-13 20:48:00
1:58 PM,55.4,45.9,70,30.33,10.0,NNE,6.9,-,N/A,,Partly Cloudy,30,2013-10-13 20:58:00
2:58 PM,56.5,46.0,68,30.33,10.0,NNE,5.8,-,N/A,,Clear,20,2013-10-13 21:58:00
3:58 PM,57.0,45.5,65,30.33,10.0,NNE,5.8,-,N/A,,Clear,20,2013-10-13 22:58:00
4:58 PM,56.8,46.2,68,30.33,10.0,Variable,3.5,-,N/A,,Clear,0,2013-10-13 23:58:00
5:58 PM,54.9,46.6,74,30.34,10.0,ENE,3.5,-,N/A,,Clear,60,2013-10-14 00:58:00
6:58 PM,50.7,45.3,82,30.35,10.0,Calm,Calm,-,N/A,,Clear,0,2013-10-14 01:58:00
7:58 PM,46.0,45.5,98,30.36,10.0,ESE,1.2,-,N/A,,Clear,110,2013-10-14 02:58:00
8:58 PM,41.9,41.5,99,30.36,5.0,ESE,2.3,-,N/A,,Clear,120,2013-10-14 03:58:00
9:18 PM,42.8,42.8,100,30.34,3.0,Calm,Calm,-,N/A,,Clear,0,2013-10-14 04:18:00
9:23 PM,42.8,41.0,93,30.35,1.8,SE,1.2,-,N/A,,Clear,130,2013-10-14 04:23:00
9:28 PM,41.0,41.0,100,30.35,2.0,ESE,1.2,-,N/A,,Clear,120,2013-10-14 04:28:00
9:33 PM,41.0,41.0,100,30.35,6.0,Calm,Calm,-,N/A,,Clear,0,2013-10-14 04:33:00
9:38 PM,41.0,41.0,100,30.35,0.8,Calm,Calm,-,N/A,,Clear,0,2013-10-14 04:38:00
9:43 PM,41.0,41.0,100,30.35,0.5,Calm,Calm,-,N/A,Fog,Fog,0,2013-10-14 04:43:00
9:53 PM,42.8,41.0,93,30.35,0.5,Calm,Calm,-,N/A,Fog,Fog,0,2013-10-14 04:53:00
9:58 PM,41.7,41.4,99,30.38,0.5,SSE,2.3,-,N/A,Fog,Fog,160,2013-10-14 04:58:00
10:03 PM,41.0,41.0,100,30.36,0.5,South,1.2,-,N/A,Fog,Fog,170,2013-10-14 05:03:00
10:08 PM,42.8,41.0,93,30.36,0.5,Calm,Calm,-,N/A,Fog,Fog,0,2013-10-14 05:08:00
10:18 PM,41.0,41.0,100,30.36,0.5,SSE,3.5,-,N/A,Fog,Fog,150,2013-10-14 05:18:00
10:23 PM,41.0,41.0,100,30.36,0.5,SSE,3.5,-,N/A,Fog,Fog,160,2013-10-14 05:23:00
10:28 PM,41.0,41.0,100,30.36,0.5,SSE,2.3,-,N/A,Fog,Fog,150,2013-10-14 05:28:00
10:38 PM,41.0,39.2,93,30.36,0.2,Calm,Calm,-,N/A,Fog,Fog,0,2013-10-14 05:38:00
10:53 PM,39.2,39.2,100,30.36,0.2,Calm,Calm,-,N/A,Fog,Fog,0,2013-10-14 05:53:00
10:58 PM,39.9,39.6,99,30.38,0.2,Calm,Calm,-,N/A,Fog,Fog,0,2013-10-14 05:58:00
11:03 PM,39.2,39.2,100,30.36,0.2,Calm,Calm,-,N/A,Fog,Fog,0,2013-10-14 06:03:00
11:08 PM,39.2,39.2,100,30.36,0.5,Calm,Calm,-,N/A,Fog,Fog,0,2013-10-14 06:08:00
11:13 PM,39.2,39.2,100,30.36,0.5,East,1.2,-,N/A,Fog,Fog,90,2013-10-14 06:13:00
11:18 PM,39.2,39.2,100,30.36,0.5,Calm,Calm,-,N/A,Fog,Fog,0,2013-10-14 06:18:00
11:28 PM,37.4,37.4,100,30.36,0.5,ESE,3.5,-,N/A,Fog,Fog,110,2013-10-14 06:28:00
11:33 PM,37.4,37.4,100,30.36,0.5,ESE,2.3,-,N/A,Fog,Fog,120,2013-10-14 06:33:00
11:38 PM,37.4,37.4,100,30.37,1.8,ESE,2.3,-,N/A,,Clear,120,2013-10-14 06:38:00
11:43 PM,37.4,37.4,100,30.37,1.0,ESE,2.3,-,N/A,,Clear,110,2013-10-14 06:43:00
11:48 PM,37.4,37.4,100,30.37,0.5,ESE,2.3,-,N/A,Fog,Fog,110,2013-10-14 06:48:00
11:53 PM,37.4,37.4,100,30.37,1.0,ESE,2.3,-,N/A,,Clear,110,2013-10-14 06:53:00
11:58 PM,37.4,37.4,100,30.39,3.0,ESE,2.3,-,N/A,,Clear,110,2013-10-14 06:58:00